• In Deutschland
  • Länderverzeichnis
  • Für 7 Tage
  • Wassertemperatur
  • Satellitenkarten
  • Wetterkarte
  • Widgets
  • user-avatar
    Anmelden

    Stündliche Wetter Julara

    Heute, 30 April, Sonntag

    Zeit Temperatur Niederschläge Wind Luftdruck Luftfeuchtigkeit
    00:00 +17°C° 0 mm 4 m/S 721 mmHg 40%
    01:00 +17°C° 0 mm 4 m/S 721 mmHg 42%
    02:00 +15°C° 0 mm 4 m/S 721 mmHg 43%
    03:00 +16°C° 0 mm 3 m/S 720 mmHg 44%
    04:00 +16°C° 0 mm 3 m/S 720 mmHg 45%
    05:00 +16°C° 0 mm 3 m/S 720 mmHg 46%
    06:00 +14°C° 0 mm 3 m/S 720 mmHg 47%
    07:00 +16°C° 0 mm 3 m/S 721 mmHg 44%
    08:00 +17°C° 0 mm 4 m/S 721 mmHg 42%
    09:00 +19°C° 0 mm 4 m/S 721 mmHg 39%
    10:00 +20°C° 0 mm 3 m/S 721 mmHg 36%
    11:00 +21°C° 0 mm 3 m/S 721 mmHg 33%
    12:00 +23°C° 0 mm 2 m/S 720 mmHg 30%
    13:00 +23°C° 0 mm 2 m/S 720 mmHg 29%
    14:00 +24°C° 0 mm 1 m/S 719 mmHg 27%
    15:00 +22°C° 0 mm 0 m/S 719 mmHg 27%
    16:00 +21°C° 0 mm 0 m/S 719 mmHg 29%
    17:00 +21°C° 0 mm 0 m/S 719 mmHg 31%
    18:00 +20°C° 0 mm 0 m/S 719 mmHg 33%
    19:00 +22°C° 0 mm 1 m/S 719 mmHg 33%
    20:00 +21°C° 0 mm 1 m/S 719 mmHg 34%
    21:00 +20°C° 0 mm 1 m/S 720 mmHg 35%
    22:00 +20°C° 0 mm 1 m/S 720 mmHg 36%
    23:00 +19°C° 0 mm 1 m/S 720 mmHg 38%

    Morgen, 1 Mai, Montag

    Zeit Temperatur Niederschläge Wind Luftdruck Luftfeuchtigkeit
    00:00 +19°C° 0 mm 1 m/S 720 mmHg 40%
    01:00 +18°C° 0 mm 1 m/S 719 mmHg 41%
    02:00 +18°C° 0 mm 1 m/S 719 mmHg 43%
    03:00 +16°C° 0 mm 1 m/S 719 mmHg 44%
    04:00 +16°C° 0 mm 1 m/S 719 mmHg 45%
    05:00 +15°C° 0 mm 1 m/S 719 mmHg 46%
    06:00 +15°C° 0 mm 1 m/S 719 mmHg 48%
    07:00 +18°C° 0 mm 1 m/S 720 mmHg 43%
    08:00 +19°C° 0 mm 1 m/S 720 mmHg 39%
    09:00 +21°C° 0 mm 1 m/S 721 mmHg 34%
    10:00 +21°C° 0 mm 2 m/S 721 mmHg 31%
    11:00 +23°C° 0 mm 2 m/S 721 mmHg 28%
    12:00 +24°C° 0 mm 3 m/S 721 mmHg 25%
    13:00 +25°C° 0 mm 3 m/S 720 mmHg 24%
    14:00 +26°C° 0 mm 3 m/S 720 mmHg 23%
    15:00 +26°C° 0 mm 3 m/S 720 mmHg 21%
    16:00 +25°C° 0 mm 3 m/S 720 mmHg 23%
    17:00 +24°C° 0 mm 3 m/S 720 mmHg 24%
    18:00 +24°C° 0 mm 3 m/S 720 mmHg 26%
    19:00 +22°C° 0 mm 3 m/S 720 mmHg 28%
    20:00 +21°C° 0 mm 4 m/S 721 mmHg 30%
    21:00 +20°C° 0 mm 4 m/S 721 mmHg 31%
    22:00 +20°C° 0 mm 4 m/S 721 mmHg 33%
    23:00 +19°C° 0 mm 4 m/S 721 mmHg 35%

    übermorgen, 2 Mai, Dienstag

    Zeit Temperatur Niederschläge Wind Luftdruck Luftfeuchtigkeit
    00:00 +19°C° 0 mm 4 m/S 721 mmHg 36%
    01:00 +18°C° 0 mm 4 m/S 721 mmHg 38%
    02:00 +17°C° 0 mm 4 m/S 721 mmHg 40%
    03:00 +17°C° 0 mm 4 m/S 721 mmHg 42%
    04:00 +15°C° 0 mm 5 m/S 721 mmHg 46%
    05:00 +15°C° 0 mm 5 m/S 721 mmHg 50%
    06:00 +14°C° 0 mm 5 m/S 721 mmHg 54%
    07:00 +15°C° 0 mm 6 m/S 722 mmHg 55%
    08:00 +16°C° 0 mm 7 m/S 722 mmHg 57%
    09:00 +16°C° 0 mm 7 m/S 723 mmHg 58%
    10:00 +18°C° 0 mm 7 m/S 723 mmHg 52%
    11:00 +20°C° 0 mm 7 m/S 723 mmHg 47%
    12:00 +22°C° 0 mm 6 m/S 723 mmHg 41%
    13:00 +22°C° 0 mm 6 m/S 722 mmHg 40%
    14:00 +22°C° 0 mm 6 m/S 722 mmHg 38%
    15:00 +23°C° 0 mm 6 m/S 721 mmHg 36%
    16:00 +22°C° 0 mm 6 m/S 721 mmHg 40%
    17:00 +21°C° 0 mm 6 m/S 722 mmHg 43%
    18:00 +20°C° 0 mm 6 m/S 722 mmHg 46%
    19:00 +19°C° 0 mm 6 m/S 722 mmHg 48%
    20:00 +17°C° 0 mm 6 m/S 723 mmHg 51%
    21:00 +16°C° 0 mm 6 m/S 723 mmHg 54%
    22:00 +16°C° 0 mm 6 m/S 723 mmHg 55%
    23:00 +15°C° 0 mm 6 m/S 723 mmHg 56%

    3 Mai, Mittwoch

    Zeit Temperatur Niederschläge Wind Luftdruck Luftfeuchtigkeit
    00:00 +15°C° 0 mm 6 m/S 723 mmHg 57%
    01:00 +14°C° 0 mm 6 m/S 723 mmHg 57%
    02:00 +14°C° 0 mm 6 m/S 723 mmHg 58%
    03:00 +13°C° 0 mm 6 m/S 723 mmHg 59%
    04:00 +13°C° 0 mm 6 m/S 723 mmHg 60%
    05:00 +12°C° 0 mm 5 m/S 723 mmHg 61%
    06:00 +12°C° 0 mm 5 m/S 723 mmHg 62%
    07:00 +11°C° 0 mm 6 m/S 724 mmHg 58%
    08:00 +13°C° 0 mm 6 m/S 724 mmHg 54%
    09:00 +14°C° 0 mm 7 m/S 725 mmHg 50%
    10:00 +15°C° 0 mm 7 m/S 725 mmHg 45%
    11:00 +17°C° 0 mm 6 m/S 724 mmHg 40%
    12:00 +19°C° 0 mm 6 m/S 724 mmHg 35%
    13:00 +20°C° 0 mm 6 m/S 723 mmHg 33%
    14:00 +20°C° 0 mm 6 m/S 723 mmHg 31%
    15:00 +21°C° 0 mm 5 m/S 722 mmHg 28%
    16:00 +20°C° 0 mm 5 m/S 722 mmHg 30%
    17:00 +19°C° 0 mm 5 m/S 722 mmHg 32%
    18:00 +19°C° 0 mm 4 m/S 722 mmHg 34%
    19:00 +18°C° 0 mm 4 m/S 723 mmHg 37%
    20:00 +17°C° 0 mm 4 m/S 724 mmHg 39%
    21:00 +17°C° 0 mm 4 m/S 724 mmHg 42%
    22:00 +15°C° 0 mm 4 m/S 724 mmHg 45%
    23:00 +15°C° 0 mm 4 m/S 724 mmHg 48%

    4 Mai, Donnerstag

    Zeit Temperatur Niederschläge Wind Luftdruck Luftfeuchtigkeit
    00:00 +14°C° 0 mm 5 m/S 724 mmHg 50%
    01:00 +14°C° 0 mm 5 m/S 724 mmHg 53%
    02:00 +13°C° 0 mm 5 m/S 724 mmHg 55%
    03:00 +13°C° 0 mm 5 m/S 723 mmHg 58%
    04:00 +13°C° 0 mm 4 m/S 724 mmHg 59%
    05:00 +12°C° 0 mm 4 m/S 724 mmHg 60%
    06:00 +12°C° 0 mm 4 m/S 724 mmHg 62%
    07:00 +13°C° 0 mm 5 m/S 724 mmHg 57%
    08:00 +14°C° 0 mm 6 m/S 725 mmHg 53%
    09:00 +15°C° 0 mm 6 m/S 725 mmHg 49%
    10:00 +16°C° 0 mm 6 m/S 725 mmHg 44%
    11:00 +19°C° 0 mm 5 m/S 725 mmHg 39%
    12:00 +20°C° 0 mm 5 m/S 724 mmHg 35%
    13:00 +21°C° 0 mm 5 m/S 724 mmHg 32%
    14:00 +21°C° 0 mm 5 m/S 723 mmHg 29%
    15:00 +22°C° 0 mm 4 m/S 722 mmHg 26%
    16:00 +21°C° 0 mm 4 m/S 723 mmHg 27%
    17:00 +20°C° 0 mm 4 m/S 723 mmHg 28%
    18:00 +20°C° 0 mm 3 m/S 723 mmHg 29%
    19:00 +19°C° 0 mm 3 m/S 723 mmHg 30%
    20:00 +18°C° 0 mm 4 m/S 724 mmHg 31%
    21:00 +17°C° 0 mm 4 m/S 724 mmHg 32%
    22:00 +17°C° 0 mm 4 m/S 724 mmHg 33%
    23:00 +15°C° 0 mm 4 m/S 724 mmHg 34%

    5 Mai, Freitag

    Zeit Temperatur Niederschläge Wind Luftdruck Luftfeuchtigkeit
    00:00 +15°C° 0 mm 4 m/S 724 mmHg 34%
    01:00 +14°C° 0 mm 4 m/S 724 mmHg 35%
    02:00 +14°C° 0 mm 4 m/S 724 mmHg 36%
    03:00 +13°C° 0 mm 4 m/S 723 mmHg 37%
    04:00 +13°C° 0 mm 4 m/S 724 mmHg 38%
    05:00 +12°C° 0 mm 4 m/S 724 mmHg 40%
    06:00 +12°C° 0 mm 4 m/S 724 mmHg 42%
    07:00 +13°C° 0 mm 4 m/S 724 mmHg 40%
    08:00 +15°C° 0 mm 4 m/S 725 mmHg 39%
    09:00 +16°C° 0 mm 5 m/S 725 mmHg 38%
    10:00 +19°C° 0 mm 5 m/S 725 mmHg 36%
    11:00 +20°C° 0 mm 5 m/S 725 mmHg 34%
    12:00 +22°C° 0 mm 4 m/S 724 mmHg 32%
    13:00 +23°C° 0 mm 4 m/S 724 mmHg 30%
    14:00 +24°C° 0 mm 3 m/S 723 mmHg 28%
    15:00 +25°C° 0 mm 2 m/S 723 mmHg 26%
    16:00 +24°C° 0 mm 2 m/S 723 mmHg 27%
    17:00 +23°C° 0 mm 2 m/S 723 mmHg 29%
    18:00 +23°C° 0 mm 2 m/S 723 mmHg 30%
    19:00 +21°C° 0 mm 3 m/S 724 mmHg 32%
    20:00 +20°C° 0 mm 3 m/S 724 mmHg 33%
    21:00 +20°C° 0 mm 4 m/S 724 mmHg 34%
    22:00 +19°C° 0 mm 4 m/S 724 mmHg 36%
    23:00 +19°C° 0 mm 4 m/S 724 mmHg 38%
    Mehr zeigen